Location: Unspecified
(0.0000°N, 0.0000°E)
Time: 23:09:27
(UTC+00:00)

Envisat - Pass Details

Date: 16 April 2018
Orbit: 764 x 766 km, 98.2° (Epoch: 26 April)

Event Time Altitude Azimuth Distance (km) Brightness Sun altitude
Exits shadow 20:25:48 30° 298° (WNW) 1,339 4.6 -35.8°
Drops below altitude 10° 20:28:50 10° 326° (NW) 2,293 5.9 -36.6°
Sets 20:31:16 0° 334° (NNW) 3,216 6.7 -37.2°
